| time (UTC) | temp F | wind direction | speed MPH | gust MPH | rain 1hr in | rain 24hr in | rain mn in | humidity % | barometer mb |
| 20260902223046 | 98 | 101 | 4.0 | 10.0 | 0.00 | 0.00 | 0.00 | 42 | 1010.6 |
| 20260902221545 | 99 | 86 | 4.0 | 9.0 | 0.00 | 0.00 | 0.00 | 39 | 1010.4 |
| 20260902220043 | 99 | 111 | 0.0 | 7.0 | 0.00 | 0.00 | 0.00 | 39 | 1010.5 |
| 20260902214544 | 100 | 62 | 3.0 | 8.0 | 0.00 | 0.00 | 0.00 | 39 | 1010.5 |
| 20260902213041 | 99 | 59 | 0.0 | 10.0 | 0.00 | 0.00 | 0.00 | 40 | 1010.8 |
| 20260902211539 | 100 | 105 | 0.0 | 8.0 | 0.00 | 0.00 | 0.00 | 40 | 1010.9 |
| 20260902210051 | 99 | 38 | 3.0 | 9.0 | 0.00 | 0.00 | 0.00 | 39 | 1011.0 |
| 20260902204537 | 99 | 51 | 1.0 | 11.0 | 0.00 | 0.00 | 0.00 | 40 | 1011.3 |
| 20260902203034 | 100 | 103 | 0.0 | 6.0 | 0.00 | 0.00 | 0.00 | 39 | 1011.6 |
| 20260902201536 | 98 | 77 | 1.0 | 7.0 | 0.00 | 0.00 | 0.00 | 40 | 1011.7 |
| 20260902200034 | 99 | 51 | 1.0 | 9.0 | 0.00 | 0.00 | 0.00 | 40 | 1012.1 |
| 20260902194534 | 98 | 86 | 1.0 | 8.0 | 0.00 | 0.00 | 0.00 | 40 | 1012.3 |
| 20260902183018 | 96 | 71 | 0.0 | 4.0 | 0.00 | 0.00 | 0.00 | 45 | 1013.3 |
| 20260902181510 | 95 | 38 | 0.0 | 5.0 | 0.00 | 0.00 | 0.00 | 48 | 1013.6 |
| 20260902180007 | 94 | 107 | 1.0 | 6.0 | 0.00 | 0.00 | 0.00 | 49 | 1014.0 |
| 20260902174503 | 94 | 122 | 0.0 | 6.0 | 0.00 | 0.00 | 0.00 | 49 | 1014.5 |
| 20260902173059 | 94 | 15 | 0.0 | 4.0 | 0.00 | 0.00 | 0.00 | 51 | 1014.5 |
| 20260902171601 | 92 | 73 | 1.0 | 8.0 | 0.00 | 0.00 | 0.00 | 53 | 1014.7 |
| 20260902170057 | 93 | 60 | 2.0 | 6.0 | 0.00 | 0.00 | 0.00 | 52 | 1015.1 |
| 20260902164557 | 92 | 122 | 0.0 | 6.0 | 0.00 | 0.00 | 0.00 | 54 | 1015.3 |
| 20260902163058 | 91 | 106 | 0.0 | 4.0 | 0.00 | 0.00 | 0.00 | 57 | 1015.4 |
| 20260902161554 | 91 | 89 | 2.0 | 6.0 | 0.00 | 0.00 | 0.00 | 58 | 1015.3 |
| 20260902160053 | 90 | 114 | 1.0 | 4.0 | 0.00 | 0.00 | 0.00 | 59 | 1015.4 |
| 20260902154550 | 89 | 98 | 1.0 | 6.0 | 0.00 | 0.00 | 0.00 | 60 | 1015.4 |
| 20260902153047 | 89 | 96 | 0.0 | 3.0 | 0.00 | 0.00 | 0.00 | 59 | 1015.4 |
| 20260902151544 | 88 | 139 | 0.0 | 5.0 | 0.00 | 0.00 | 0.00 | 62 | 1015.3 |
| 20260902150042 | 87 | 86 | 1.0 | 5.0 | 0.00 | 0.00 | 0.00 | 63 | 1015.3 |
| 20260902144541 | 88 | 58 | 1.0 | 5.0 | 0.00 | 0.00 | 0.00 | 62 | 1015.2 |
| 20260902143040 | 88 | 60 | 0.0 | 3.0 | 0.00 | 0.00 | 0.00 | 63 | 1015.2 |
| 20260902141539 | 86 | 96 | 0.0 | 3.0 | 0.00 | 0.00 | 0.00 | 67 | 1015.2 |
| 20260902140042 | 85 | 97 | 1.0 | 4.0 | 0.00 | 0.00 | 0.00 | 68 | 1015.2 |
| 20260902134542 | 84 | 160 | 0.0 | 3.0 | 0.00 | 0.00 | 0.00 | 69 | 1015.0 |
| 20260902133030 | 83 | 114 | 0.0 | 4.0 | 0.00 | 0.00 | 0.00 | 71 | 1015.0 |
| 20260902131543 | 82 | 131 | 0.0 | 5.0 | 0.00 | 0.00 | 0.00 | 73 | 1014.9 |
| 20260902130028 | 81 | 116 | 1.0 | 5.0 | 0.00 | 0.00 | 0.00 | 74 | 1014.9 |
| 20260902124527 | 80 | 98 | 1.0 | 4.0 | 0.00 | 0.00 | 0.00 | 75 | 1014.9 |
| 20260902123025 | 79 | 135 | 0.0 | 4.0 | 0.00 | 0.00 | 0.00 | 75 | 1014.6 |
| 20260902121524 | 78 | 112 | 0.0 | 3.0 | 0.00 | 0.00 | 0.00 | 76 | 1014.7 |
| 20260902120024 | 78 | 72 | 0.0 | 2.0 | 0.00 | 0.00 | 0.00 | 76 | 1014.7 |
| 20260902114524 | 78 | 110 | 0.0 | 0.0 | 0.00 | 0.00 | 0.00 | 76 | 1014.7 |
| 20260902113022 | 78 | 110 | 0.0 | 0.0 | 0.00 | 0.00 | 0.00 | 76 | 1014.8 |
| 20260902111522 | 79 | 143 | 0.0 | 0.0 | 0.00 | 0.00 | 0.00 | 75 | 1014.8 |
| 20260902110020 | 78 | 143 | 0.0 | 0.0 | 0.00 | 0.00 | 0.00 | 75 | 1014.7 |
| 20260902104520 | 79 | 143 | 0.0 | 0.0 | 0.00 | 0.00 | 0.00 | 74 | 1014.6 |
| 20260902103018 | 79 | 143 | 0.0 | 0.0 | 0.00 | 0.00 | 0.00 | 74 | 1014.6 |
| 20260902101517 | 79 | 143 | 0.0 | 0.0 | 0.00 | 0.00 | 0.00 | 73 | 1014.7 |
| 20260902100016 | 79 | 143 | 0.0 | 0.0 | 0.00 | 0.00 | 0.00 | 73 | 1014.6 |
| 20260902094514 | 80 | 143 | 0.0 | 0.0 | 0.00 | 0.00 | 0.00 | 72 | 1014.6 |
| 20260902093011 | 80 | 143 | 0.0 | 0.0 | 0.00 | 0.00 | 0.00 | 70 | 1014.4 |
| 20260902091522 | 81 | 194 | 0.0 | 0.0 | 0.00 | 0.00 | 0.00 | 70 | 1014.4 |
| 20260902090008 | 81 | 194 | 0.0 | 0.0 | 0.00 | 0.00 | 0.00 | 70 | 1014.2 |
| 20260902084509 | 81 | 194 | 0.0 | 0.0 | 0.00 | 0.00 | 0.00 | 70 | 1014.2 |
| 20260902083005 | 81 | 194 | 0.0 | 0.0 | 0.00 | 0.00 | 0.00 | 69 | 1014.2 |
| 20260902081505 | 82 | 194 | 0.0 | 0.0 | 0.00 | 0.00 | 0.00 | 68 | 1014.1 |
| 20260902080001 | 82 | 194 | 0.0 | 1.0 | 0.00 | 0.00 | 0.00 | 67 | 1014.1 |
| 20260902074621 | 83 | 228 | 0.0 | 1.0 | 0.00 | 0.00 | 0.00 | 67 | 1014.2 |
| 20260902073109 | 83 | 271 | 0.0 | 4.0 | 0.00 | 0.00 | 0.00 | 66 | 1014.3 |
| 20260902071614 | 83 | 177 | 0.0 | 5.0 | 0.00 | 0.00 | 0.00 | 66 | 1014.2 |
| 20260902070056 | 83 | 170 | 0.0 | 3.0 | 0.00 | 0.00 | 0.00 | 65 | 1014.4 |
| 20260902064559 | 84 | 89 | 0.0 | 3.0 | 0.00 | 0.00 | 0.00 | 65 | 1014.4 |
| 20260902063055 | 84 | 79 | 0.0 | 1.0 | 0.00 | 0.00 | 0.00 | 65 | 1014.4 |
| 20260902061606 | 84 | 223 | 0.0 | 3.0 | 0.00 | 0.00 | 0.00 | 65 | 1014.4 |
| 20260902060052 | 84 | 191 | 0.0 | 3.0 | 0.00 | 0.00 | 0.00 | 65 | 1014.3 |
| 20260902054549 | 85 | 94 | 0.0 | 5.0 | 0.00 | 0.00 | 0.00 | 65 | 1014.3 |
| 20260902053049 | 85 | 152 | 0.0 | 5.0 | 0.00 | 0.00 | 0.00 | 65 | 1014.3 |
| 20260902051546 | 86 | 176 | 1.0 | 5.0 | 0.00 | 0.00 | 0.00 | 64 | 1014.3 |
| 20260902050047 | 86 | 102 | 1.0 | 7.0 | 0.00 | 0.00 | 0.00 | 63 | 1014.2 |
| 20260902044543 | 86 | 176 | 0.0 | 4.0 | 0.00 | 0.00 | 0.00 | 62 | 1014.1 |
| 20260902043042 | 87 | 79 | 1.0 | 6.0 | 0.00 | 0.00 | 0.00 | 61 | 1014.1 |
| 20260902041544 | 87 | 91 | 1.0 | 7.0 | 0.00 | 0.00 | 0.00 | 60 | 1014.1 |
| 20260902040041 | 88 | 162 | 2.0 | 5.0 | 0.00 | 0.00 | 0.00 | 58 | 1014.0 |
| 20260902034642 | 89 | 225 | 2.0 | 7.0 | 0.00 | 0.00 | 0.00 | 56 | 1013.9 |
| 20260902033039 | 90 | 160 | 4.0 | 13.0 | 0.00 | 0.00 | 0.00 | 53 | 1013.7 |
| 20260902031538 | 89 | 109 | 0.0 | 0.0 | 0.00 | 0.00 | 0.00 | 53 | 1013.3 |
| 20260902030038 | 90 | 110 | 0.0 | 0.0 | 0.00 | 0.00 | 0.00 | 52 | 1013.1 |
| 20260902024538 | 90 | 110 | 0.0 | 0.0 | 0.00 | 0.00 | 0.00 | 51 | 1013.0 |
| 20260902023039 | 91 | 110 | 0.0 | 0.0 | 0.00 | 0.00 | 0.00 | 51 | 1012.8 |
| 20260902021536 | 91 | 110 | 0.0 | 2.0 | 0.00 | 0.00 | 0.00 | 50 | 1012.6 |
| 20260902020034 | 91 | 105 | 0.0 | 3.0 | 0.00 | 0.00 | 0.00 | 49 | 1012.5 |
| 20260902014540 | 92 | 115 | 0.0 | 3.0 | 0.00 | 0.00 | 0.00 | 49 | 1012.3 |
| 20260902013033 | 92 | 107 | 0.0 | 4.0 | 0.00 | 0.00 | 0.00 | 48 | 1012.2 |
| 20260902011545 | 93 | 102 | 1.0 | 9.0 | 0.00 | 0.00 | 0.00 | 47 | 1012.0 |
| 20260902010104 | 94 | 102 | 0.0 | 0.0 | 0.00 | 0.00 | 0.00 | 45 | 1012.0 |
| 20260902004531 | 94 | 102 | 0.0 | 2.0 | 0.00 | 0.00 | 0.00 | 44 | 1011.9 |
| 20260902003138 | 95 | 82 | 0.0 | 2.0 | 0.00 | 0.00 | 0.00 | 44 | 1012.0 |
| 20260901233102 | 96 | 89 | 0.0 | 7.0 | 0.00 | 0.00 | 0.00 | 42 | 1012.3 |
| 20260901231558 | 96 | 84 | 1.0 | 4.0 | 0.00 | 0.00 | 0.00 | 42 | 1012.3 |